Weather History for Bentonville, AR

Change the Weather History Date:

Tuesday, January 31, 2012

  Actual Average Record
Temperature  
Mean Temperature 58 °F -  
Max Temperature 62 °F 47 °F 65 °F (1967)
Min Temperature 55 °F 24 °F -4 °F (1979)
Degree Days  
Heating Degree Days 6    
Growing Degree Days 8 (Base 50)    
Moisture  
Dew Point 49 °F    
Average Humidity 71    
Maximum Humidity 88    
Minimum Humidity 59    
Precipitation  
Precipitation 0.00 in - - ()
Sea Level Pressure  
Sea Level Pressure 29.99 in    
Wind  
Wind Speed 14 mph (SSW)    
Max Wind Speed 22 mph    
Max Gust Speed 34 mph    
Visibility 10 miles    
Events      
Averages and records for this station are not official NWS values.
T = Trace of Precipitation, MM = Missing Value Source: NWS Daily Summary

Daily Weather History Graph

Daily Weather History Graph

Search for Another Location

Airport:

Trip Planner

Search our weather history database for the weather conditions in past years. The results will help you decide how hot, cold, wet, or windy it might be!

Date:

Astronomy

Jan. 31, 2012 Rise Set
Actual Time 7:19 AM CST 5:41 PM CST
Civil Twilight 6:52 AM CST 6:08 PM CST
Nautical Twilight 6:21 AM CST 6:39 PM CST
Astronomical Twilight 5:50 AM CST 7:10 PM CST
Moon 11:33 AM CST (1/31) 1:07 AM CST (1/31)
Length of Visible Light 11h 16m
Length of Day
10h 22m
First Quarter, 55% of the Moon is Illuminated
Jan 31
First Quarter
Feb 7
Full
Feb 14
Last Quarter
Feb 21
New
Feb 29
First Quarter

Hourly Weather History & Observations

Time (CST) Temp. Dew Point Humidity Pressure Visibility Wind Dir Wind Speed Gust Speed Precip Events Conditions
12:15 AM 57.2 °F 42.8 °F 59% 30.03 in 10.0 mi SSW 13.8 mph 24.2 mph N/A   Overcast
12:35 AM 57.2 °F 42.8 °F 59% 30.03 in 10.0 mi SSW 12.7 mph 21.9 mph N/A   Overcast
12:55 AM 57.2 °F 42.8 °F 59% 30.03 in 10.0 mi SSW 16.1 mph 21.9 mph N/A   Overcast
1:15 AM 57.2 °F 42.8 °F 59% 30.02 in 10.0 mi SSW 10.4 mph 18.4 mph N/A   Overcast
1:35 AM 57.2 °F 44.6 °F 63% 30.02 in 10.0 mi SSW 12.7 mph 20.7 mph N/A   Overcast
1:55 AM 57.2 °F 44.6 °F 63% 30.02 in 10.0 mi SSW 15.0 mph 21.9 mph N/A   Mostly Cloudy
2:15 AM 57.2 °F 44.6 °F 63% 30.01 in 10.0 mi SSW 11.5 mph 21.9 mph N/A   Overcast
2:35 AM 57.2 °F 44.6 °F 63% 30.00 in 10.0 mi SSW 13.8 mph 19.6 mph N/A   Overcast
2:55 AM 57.2 °F 44.6 °F 63% 30.00 in 10.0 mi South 15.0 mph 21.9 mph N/A   Overcast
3:15 AM 57.2 °F 44.6 °F 63% 30.00 in 10.0 mi SSW 13.8 mph 19.6 mph N/A   Overcast
3:35 AM 57.2 °F 46.4 °F 67% 30.00 in 10.0 mi SSW 11.5 mph 19.6 mph N/A   Overcast
3:55 AM 57.2 °F 46.4 °F 67% 30.00 in 10.0 mi SSW 15.0 mph 21.9 mph N/A   Overcast
4:15 AM 57.2 °F 46.4 °F 67% 30.00 in 10.0 mi SSW 12.7 mph 20.7 mph N/A   Overcast
4:35 AM 57.2 °F 46.4 °F 67% 30.00 in 10.0 mi SSW 13.8 mph 23.0 mph N/A   Overcast
4:55 AM 57.2 °F 48.2 °F 72% 30.00 in 10.0 mi SSW 12.7 mph 20.7 mph N/A   Overcast
5:15 AM 57.2 °F 46.4 °F 67% 30.00 in 10.0 mi South 10.4 mph 20.7 mph N/A   Overcast
5:35 AM 57.2 °F 46.4 °F 67% 30.00 in 10.0 mi SSW 11.5 mph 18.4 mph N/A   Overcast
5:55 AM 55.4 °F 46.4 °F 72% 30.00 in 10.0 mi SSW 15.0 mph 21.9 mph N/A   Overcast
6:15 AM 55.4 °F 48.2 °F 77% 30.00 in 10.0 mi SSW 16.1 mph 20.7 mph N/A   Overcast
6:35 AM 55.4 °F 48.2 °F 77% 30.00 in 10.0 mi SSW 11.5 mph 19.6 mph N/A   Overcast
6:55 AM 55.4 °F 48.2 °F 77% 30.00 in 10.0 mi South 16.1 mph 20.7 mph N/A   Overcast
7:15 AM 55.4 °F 50.0 °F 82% 30.00 in 10.0 mi South 12.7 mph - N/A   Overcast
7:35 AM 55.4 °F 50.0 °F 82% 30.01 in 10.0 mi South 11.5 mph 19.6 mph N/A   Overcast
7:55 AM 55.4 °F 50.0 °F 82% 30.00 in 10.0 mi South 11.5 mph 18.4 mph N/A   Overcast
8:15 AM 55.4 °F 51.8 °F 88% 30.00 in 10.0 mi South 13.8 mph - N/A   Overcast
8:35 AM 55.4 °F 51.8 °F 88% 30.00 in 10.0 mi South 16.1 mph 21.9 mph N/A   Overcast
8:55 AM 55.4 °F 51.8 °F 88% 30.00 in 10.0 mi South 15.0 mph 21.9 mph N/A   Overcast
9:15 AM 57.2 °F 51.8 °F 82% 30.00 in 10.0 mi South 17.3 mph 23.0 mph N/A   Overcast
9:35 AM 57.2 °F 51.8 °F 82% 30.00 in 10.0 mi SSW 13.8 mph 25.3 mph N/A   Overcast
9:55 AM 57.2 °F 51.8 °F 82% 30.00 in 10.0 mi SSW 18.4 mph 24.2 mph N/A   Overcast
10:15 AM 59.0 °F 51.8 °F 77% 30.00 in 10.0 mi SSW 12.7 mph 26.5 mph N/A   Overcast
10:35 AM 60.8 °F 51.8 °F 72% 30.00 in 10.0 mi SSW 15.0 mph 26.5 mph N/A   Overcast
10:55 AM 60.8 °F 51.8 °F 72% 30.00 in 10.0 mi SSW 13.8 mph 23.0 mph N/A   Overcast
11:15 AM 60.8 °F 51.8 °F 72% 30.00 in 10.0 mi SSW 17.3 mph 27.6 mph N/A   Overcast
11:35 AM 60.8 °F 51.8 °F 72% 29.98 in 10.0 mi South 17.3 mph 26.5 mph N/A   Overcast
11:55 AM 60.8 °F 51.8 °F 72% 29.98 in 10.0 mi South 18.4 mph 26.5 mph N/A   Overcast
12:15 PM 60.8 °F 51.8 °F 72% 29.96 in 10.0 mi SSW 15.0 mph 25.3 mph N/A   Overcast
12:35 PM 60.8 °F 51.8 °F 72% 29.95 in 10.0 mi SSW 19.6 mph 28.8 mph N/A   Overcast
12:55 PM 62.6 °F 51.8 °F 68% 29.94 in 10.0 mi SSW 16.1 mph 27.6 mph N/A   Overcast
1:15 PM 62.6 °F 51.8 °F 68% 29.94 in 10.0 mi SSW 20.7 mph 34.5 mph N/A   Overcast
1:35 PM 62.6 °F 51.8 °F 68% 29.94 in 10.0 mi SSW 21.9 mph 27.6 mph N/A   Overcast
1:55 PM 62.6 °F 51.8 °F 68% 29.93 in 10.0 mi SSW 20.7 mph 27.6 mph N/A   Overcast
2:15 PM 62.6 °F 51.8 °F 68% 29.94 in 10.0 mi SW 15.0 mph 20.7 mph N/A   Overcast
2:35 PM 62.6 °F 51.8 °F 68% 29.94 in 10.0 mi SSW 16.1 mph 23.0 mph N/A   Overcast
2:55 PM 62.6 °F 51.8 °F 68% 29.94 in 10.0 mi SW 20.7 mph 28.8 mph N/A   Overcast
3:15 PM 62.6 °F 51.8 °F 68% 29.94 in 10.0 mi SW 19.6 mph 23.0 mph N/A   Overcast
3:35 PM 62.6 °F 51.8 °F 68% 29.94 in 10.0 mi SSW 15.0 mph 19.6 mph N/A   Overcast
3:55 PM 62.6 °F 51.8 °F 68% 29.95 in 10.0 mi SW 15.0 mph 19.6 mph N/A   Overcast
4:15 PM 62.6 °F 51.8 °F 68% 29.96 in 10.0 mi SSW 11.5 mph - N/A   Overcast
4:35 PM 62.6 °F 51.8 °F 68% 29.96 in 10.0 mi SSW 10.4 mph 17.3 mph N/A   Overcast
4:55 PM 62.6 °F 51.8 °F 68% 29.97 in 10.0 mi SW 12.7 mph 17.3 mph N/A   Overcast
5:15 PM 62.6 °F 51.8 °F 68% 29.97 in 10.0 mi SW 10.4 mph 19.6 mph N/A   Mostly Cloudy
5:35 PM 60.8 °F 51.8 °F 72% 29.97 in 10.0 mi SSW 5.8 mph - N/A   Mostly Cloudy
5:55 PM 60.8 °F 51.8 °F 72% 29.97 in 10.0 mi South 6.9 mph - N/A   Partly Cloudy
6:15 PM 59.0 °F 51.8 °F 77% 29.98 in 10.0 mi South 6.9 mph - N/A   Clear
6:35 PM 57.2 °F 51.8 °F 82% 29.99 in 10.0 mi South 5.8 mph - N/A   Scattered Clouds
6:55 PM 57.2 °F 51.8 °F 82% 30.00 in 10.0 mi South 5.8 mph - N/A   Overcast
7:15 PM 57.2 °F 51.8 °F 82% 30.01 in 10.0 mi South 5.8 mph - N/A   Mostly Cloudy
7:35 PM 57.2 °F 51.8 °F 82% 30.01 in 10.0 mi South 6.9 mph - N/A   Partly Cloudy
7:55 PM 57.2 °F 51.8 °F 82% 30.02 in 10.0 mi South 6.9 mph - N/A   Clear
8:15 PM 55.4 °F 51.8 °F 88% 30.02 in 10.0 mi South 5.8 mph - N/A   Scattered Clouds
8:35 PM 55.4 °F 50.0 °F 82% 30.03 in 10.0 mi South 5.8 mph - N/A   Partly Cloudy
8:55 PM 55.4 °F 51.8 °F 88% 30.03 in 10.0 mi South 5.8 mph - N/A   Scattered Clouds
9:15 PM 55.4 °F 51.8 °F 88% 30.03 in 10.0 mi South 5.8 mph - N/A   Scattered Clouds
9:35 PM 55.4 °F 51.8 °F 88% 30.03 in 10.0 mi South 5.8 mph - N/A   Clear
9:55 PM 55.4 °F 51.8 °F 88% 30.03 in 10.0 mi South 6.9 mph - N/A   Partly Cloudy
10:15 PM 57.2 °F 51.8 °F 82% 30.03 in 10.0 mi SSW 5.8 mph - N/A   Mostly Cloudy
10:35 PM 55.4 °F 51.8 °F 88% 30.04 in 10.0 mi WSW 3.5 mph - N/A   Mostly Cloudy
10:55 PM 53.6 °F 51.8 °F 94% 30.05 in 10.0 mi WNW 4.6 mph - N/A   Mostly Cloudy
11:15 PM 55.4 °F 51.8 °F 88% 30.05 in 10.0 mi WNW 3.5 mph - N/A   Mostly Cloudy
11:35 PM 55.4 °F 51.8 °F 88% 30.05 in 10.0 mi West 3.5 mph - N/A   Overcast
11:55 PM 55.4 °F 51.8 °F 88% 30.05 in 10.0 mi WSW 3.5 mph - N/A   Overcast